Regional Weather Roundup
Issued by NWS Portland, ME

Home | Current Version | Previous Version | Text Only | Print | Product List | Glossary On
Versions: 1 2 3 4 5 6 7 8 9 10 11 12 13 14 15 16 17 18 19 20 21 22 23 24 25 26 27 28 29 30 31 32 33 34 35 36 37 38 39 40 41 42 43 44 45 46 47 48 49 50
395
ASUS41 KGYX 121810
RWRGYX
WEATHER ROUNDUP FOR MAINE AND NEW HAMPSHIRE
NATIONAL WEATHER SERVICE GRAY ME
100 PM EST FRI FEB 12 2016

MEZ002-005-006-010-012-015-018-020-021-024-026-027-029-121900-
MAINE

CITY           SKY/WX    TMP DP  RH WIND       PRES   REMARKS
PORTLAND       PTSUNNY   17  -5  37 CALM      30.06F
6HR MIN TEMP:  -2; 6HR MAX TEMP:  18; 6HR PCP:  0.02;

SANFORD        SUNNY     18  -2  41 SW14      30.05F WCI   4
BAR HARBOR     SUNNY     18  -6  35 SW8       30.05F
WISCASSET      SUNNY     16  -7  35 VRB5      30.07F
6HR MIN TEMP:  -6; 6HR MAX TEMP:  16;

ROCKLAND       SUNNY     13  -6  42 W10       30.05F WCI   0
FRYEBURG       CLOUDY    19  -6  33 VRB7      30.00F
6HR MIN TEMP:  -2; 6HR MAX TEMP:  20;

LEWISTONAUBURN SUNNY     16 -13  27 W5        30.02F
AUGUSTA        SUNNY     12  -9  38 VRB5      30.03F
6HR MIN TEMP:  -2; 6HR MAX TEMP:  13; 6HR PCP: TRACE;

WATERVILLE     SUNNY     15  -7  37 W7        29.99F
BANGOR         MOSUNNY   10 -10  40 W10G18    30.03F WCI  -4
6HR MIN TEMP:  -2; 6HR MAX TEMP:  11;

GREENVILLE       N/A      6  -9  50 NW14G22   29.84F WCI -11
6HR MIN TEMP:  -8; 6HR MAX TEMP:   6;

MILLINOCKET    SUNNY     10  -9  42 NW15G24   29.98F WCI  -7
6HR MIN TEMP:  -1; 6HR MAX TEMP:  10;

HOULTON        SUNNY      9  -8  46 W10       29.92F WCI  -5
6HR MIN TEMP:  -4; 6HR MAX TEMP:   9;

PRESQUE ISLE   CLOUDY     9  -5  53 W13G18    29.92F WCI  -7
6HR MIN TEMP:  -2; 6HR MAX TEMP:   9; 6HR PCP:  0.04;

FRENCHVILLE    CLOUDY     4  -8  57 W9        29.84S
6HR MIN TEMP:  -5; 6HR MAX TEMP:   4; 6HR PCP: TRACE;

CARIBOU        PTSUNNY    5  -8  55 W8        29.89S
6HR MIN TEMP:  -4; 6HR MAX TEMP:   6;

$$

NHZ002-005-008-009-011-012-014-121900-
NEW HAMPSHIRE

CITY           SKY/WX    TMP DP  RH WIND       PRES   REMARKS
PORTSMOUTH     PTSUNNY   19  -3  37 SW9       30.06F
ROCHESTER      SUNNY     19  -3  38 VRB6      30.04F
6HR MIN TEMP:   1; 6HR MAX TEMP:  19;

NASHUA         SUNNY     23   1  39 VRB5      30.08F
MANCHESTER     PTSUNNY   21  -1  38 W16       30.06F WCI   7
6HR MIN TEMP:   3; 6HR MAX TEMP:  21;

CONCORD        SUNNY     21  -3  35 CALM      30.05F
6HR MIN TEMP:   1; 6HR MAX TEMP:  21;

LACONIA        MOSUNNY   18  -2  41 CALM      30.02F
PLYMOUTH       FAIR      18  -1  43 CALM      30.01F
BERLIN         PTSUNNY   15  -5  40 NW7       29.92F
6HR MIN TEMP:  -8; 6HR MAX TEMP:  15;

WHITEFIELD     CLOUDY    13  -4  46 W6        29.95F
6HR MIN TEMP:  -8; 6HR MAX TEMP:  13;

JAFFREY        CLOUDY    16   1  51 SW8G18    30.01F
6HR MIN TEMP:  -6; 6HR MAX TEMP:  16; 6HR PCP: TRACE;

KEENE          CLOUDY    19   1  45 SW14G20   30.05F WCI   6
LEBANON        CLOUDY    19   2  47 S7        29.99F
6HR MIN TEMP:  -5; 6HR MAX TEMP:  19;

MT WASHINGTON  NOT AVBL
$$

VTZ005-007-008-121900-
VERMONT

CITY           SKY/WX    TMP DP  RH WIND       PRES   REMARKS
ST JOHNSBURY     N/A     14  -4  44 MISG      29.96F
MONTPELIER     PTSUNNY   14   1  56 S8        29.95F
BURLINGTON     FAIR      18   3  52 S17       29.97F WCI   3
$$

MAZ007-012-024-CTZ003-RIZ002-NYZ038-NYZ072-121900-
SOUTHERN NEW ENGLAND AND NY

CITY           SKY/WX    TMP DP  RH WIND       PRES   REMARKS
BOSTON         PTSUNNY   21   1  41 SW8       30.11F
WORCESTER      SUNNY     16   0  49 W12       30.03F WCI   3
NANTUCKET      SUNNY     21   7  54 SW12      30.15F WCI   9
PROVIDENCE     PTSUNNY   21   2  43 VRB5      30.13F
HARTFORD       CLOUDY    22   1  40 SW9       30.09F
ALBANY         CLOUDY    23   4  44 SE7       30.05F
NEW YORK CITY  PTSUNNY   26   0  32 S10       30.13F WCI  16
$$

ANZ081-ANZ082-ANZ150-NHZ014-MEZ023>029-121900-
COASTAL MARINE OBSERVATIONS

STATION/POSITION TIME  TEMP    WIND        PRES    WAVE
                       AIR SEA DIR/SP/G            HT/PER
                 (UTC) (F)     (DEG/KT/KT) (MB)    (FT/S)
MOUNT DESERT ROC 1800   13     250/ 14/ 16 1017.8F
MATINICUS ROCK   1700          290/ 20/ 22 1018.7F
ISLE OF SHOALS   1700   16     260/ 13/ 16 1019.2F
JEFFREYS LEDGE   1704      43                N/A     3/ 5
CASHES LEDGE BUO 1750   17 42  280/ 10/ 14 1018.1F   4/ 6
GEORGES BANK BUO 1750   28 44              1018.7F  14/11
$$

.............KEY..............
   WCI - WIND CHILL
   TC  - TEMPERATURE IN CELSIUS
   VSB - VISIBILITY IN MILES
   HX  - HEAT INDEX
   FAIR- INDICATES FEW OR NO CLOUDS BELOW 12,000 FT, WITH NO
         SIGNIFICANT WEATHER AND/OR OBSTRUCTIONS TO VISIBILITY.






USA.gov is the U.S. government's official web portal to all federal, state and local government web resources and services.